Location: *
(41.0833°N, 73.4167°W)
Time: 16:54:36
(UTC+00:00)

NOSS 3-4 (A) - Pass Details

Date: 22 October 2019
Orbit: 907 x 1306 km, 63.4° (Epoch: 10 November)

Event Time Altitude Azimuth Distance (km) Brightness Sun altitude
Exits shadow 09:05:20 49° 305° (NW) 1,192 3.6 -24.7°
Maximum altitude 09:05:34 49° 312° (NW) 1,191 3.6 -24.6°
Drops below altitude 10° 09:11:42 10° 27° (NNE) 2,746 6.2 -23.5°
Sets 09:14:30 0° 33° (NNE) 3,752 7.1 -22.9°
